Flag Weather past 2 weeks in Stephenville, Newfoundland and Labrador, Canada

Now
27 °F

Overcast.


Feels Like: 17 °F
Forecast: N/A
Wind: 9 mph from Northeast

Location: Stephenville

Current Time: Nov 28, 2014 at 6:47:18 PM

Latest Report: Nov 28, 2014 at 5:30 PM


Visibility: 15 mi

Pressure: 29.89 "Hg

Humidity: 80%

Dew point: 21 °F

Location of StephenvilleLocation

Historic Weather in Stephenville — Graph

°F

Stephenville temperature yesterday

Maximum temperature yesterday: 37 °F (at 4:30 PM)
Minimum temperature yesterday: 30 °F (at 1:30 AM)
Average temperature yesterday: 33 °F

Past Weeks' High & Low Weather Summary

 TemperatureHumidityPressure
High54 °F (Nov 18, 3:30 PM)100% (Nov 13, 5:30 PM)30.32 "Hg (Nov 13, 5:30 PM)
Low21 °F (Nov 24, 4:30 AM)54% (Nov 22, 6:30 AM)29.16 "Hg (Nov 18, 3:30 PM)
Average34 °F79%29.77 "Hg
* Reported Nov 13 5:30 PM — Nov 28 5:30 PM, Stephenville, Weather by CustomWeather, © 2014

Note: Actual official high and low records may vary slightly from our data, if they occured in-between our weather recording intervals... More about our weather records

Advertising

Stephenville weather history for previous 24 hours

 ConditionsComfort  
Time TempWeatherWind HumidityBarometerVisibility
5:30 PM
Nov 28
27 °FOvercast.9 mph80%29.89 "Hg15 mi
4:30 PM27 °FOvercast.8 mph74%29.91 "Hg15 mi
3:30 PM28 °FOvercast.13 mph74%29.88 "Hg15 mi
2:30 PM28 °FPartly sunny.13 mph74%29.87 "Hg15 mi
1:30 PM30 °FPartly sunny.7 mph75%29.87 "Hg15 mi
12:30 PM28 °FPartly sunny.9 mph86%29.88 "Hg15 mi
11:30 AM30 °FPartly sunny.9 mph69%29.90 "Hg15 mi
11:24 AM30 °FPartly sunny.9 mph75%29.90 "Hg15 mi
10:30 AM28 °FSnow flurries. Partly sunny.10 mph86%29.90 "Hg12 mi
9:30 AM30 °FSnow flurries. Partly sunny.10 mph80%29.88 "Hg8 mi
8:30 AM30 °FOvercast.8 mph80%29.89 "Hg15 mi
7:30 AM28 °FPartly sunny.No wind80%29.86 "Hg15 mi
6:30 AM28 °FPassing clouds.5 mph80%29.83 "Hg15 mi
6:19 AM28 °FPassing clouds.5 mph80%29.83 "Hg15 mi
5:30 AM28 °FClear.8 mph74%29.83 "Hg15 mi
4:30 AM28 °FClear.12 mph80%29.79 "Hg15 mi
3:30 AM28 °FClear.14 mph80%29.76 "Hg15 mi
2:30 AM30 °FPassing clouds.7 mph75%29.73 "Hg15 mi
1:30 AM30 °FPassing clouds.8 mph80%29.66 "Hg15 mi
12:30 AM32 °FOvercast.12 mph80%29.60 "Hg15 mi
11:30 PM
Nov 27
34 °FPassing clouds.15 mph81%29.55 "Hg15 mi
10:30 PM34 °FDrizzle. Overcast.10 mph87%29.49 "Hg15 mi
9:30 PM34 °FDrizzle. Fog.9 mph87%29.43 "Hg8 mi
8:30 PM34 °FDrizzle. Fog.8 mph93%29.36 "Hg3 mi
7:30 PM34 °FDrizzle. Fog.9 mph93%29.31 "Hg6 mi
6:30 PM36 °FDrizzle. Low clouds.7 mph87%29.24 "Hg8 mi
Weather by CustomWeather, © 2014

See weather overviewHow to use our weather pages